Location: Olmeneta
(45.2333°N, 10.0167°E)
Time: 18:33:46
(UTC+00:00)

Cosmos 1707 Rocket - Pass Details

Date: 03 March 2021
Orbit: 604 x 632 km, 82.5° (Epoch: 15 April)

Event Time Altitude Azimuth Distance (km) Brightness Sun altitude
Rises 17:57:40 0° 346° (NNW) 2,904 7.2 -9.2°
Reaches altitude 10° 17:59:57 10° 342° (NNW) 1,989 6.4 -9.6°
Maximum altitude 18:04:13 53° 266° (W) 757 4.5 -10.3°
Drops below altitude 10° 18:08:26 10° 190° (S) 1,957 6.2 -11.1°
Sets 18:10:40 0° 185° (S) 2,852 7.0 -11.5°
